Location: Rounton
(54.4000°N, 1.3500°W)
Time: 02:40:28
(UTC+00:00)

Altair - Pass Details

Date: 04 December 2021
Orbit: 1501 x 1683 km, 47.2° (Epoch: 19 January)

Event Time Altitude Azimuth Distance (km) Brightness Sun altitude
Rises 19:25:04 0° 270° (W) 4,708 11.2 -30.9°
Reaches altitude 10° 19:28:14 10° 266° (W) 3,704 10.4 -31.4°
Maximum altitude 19:37:06 52° 193° (SSW) 1,815 7.8 -32.6°
Enters shadow 19:38:35 48° 165° (SSE) 1,892 7.7 -32.9°
